Weather History for KPWK - May, 2013

Change the Weather History Date:

Wednesday, May 22, 2013

  Actual Average Record
Temperature  
Mean Temperature 63 °F 60 °F  
Max Temperature 73 °F 71 °F 88 °F (2011)
Min Temperature 52 °F 49 °F 37 °F (1997)
Degree Days  
Heating Degree Days 2 6  
Month to date heating degree days 155 200  
Since 1 July heating degree days 6245 6313  
Cooling Degree Days 0 2  
Month to date cooling degree days 44 19  
Year to date cooling degree days 53 23  
Growing Degree Days 13 (Base 50)    
Moisture  
Dew Point 60 °F    
Average Humidity 85    
Maximum Humidity 100    
Minimum Humidity 55    
Precipitation  
Precipitation 1.32 in 0.13 in 1.32 in (2013)
Month to date precipitation 2.51 2.71  
Year to date precipitation 8.96 10.51  
Sea Level Pressure  
Sea Level Pressure 29.68 in    
Wind  
Wind Speed 6 mph (SW)    
Max Wind Speed 16 mph    
Max Gust Speed 24 mph    
Visibility 6 miles    
Events Rain , Thunderstorm    
T = Trace of Precipitation, MM = Missing Value Source: NWS Daily Summary

Daily Weather History Graph

Daily Weather History Graph

Search for Another Location

Airport or City:

Trip Planner

Search our weather history database for the weather conditions in past years. The results will help you decide how hot, cold, wet, or windy it might be!

Date:

Astronomy

May. 22, 2013 Rise Set
Actual Time 5:24 AM CDT 8:12 PM CDT
Civil Twilight 4:51 AM CDT 8:45 PM CDT
Nautical Twilight 4:10 AM CDT 9:27 PM CDT
Astronomical Twilight 3:22 AM CDT 10:15 PM CDT
Moon 5:32 PM CDT (5/22) 3:31 AM CDT (5/22)
Length of Visible Light 15h 54m
Length of Day
14h 48m
Waxing Gibbous, 91% of the Moon is Illuminated
May 22
Waxing Gibbous
May 24
Full
May 31
Last Quarter
Jun 8
New
Jun 16
First Quarter

Hourly Weather History & Observations

Time (CDT) Temp. Dew Point Humidity Pressure Visibility Wind Dir Wind Speed Gust Speed Precip Events Conditions
12:37 AM 69.8 °F 64.4 °F 83% 29.69 in 10.0 mi South 3.5 mph - N/A Thunderstorm Mostly Cloudy
12:52 AM 69.1 °F 64.9 °F 87% 29.70 in 4.0 mi South 9.2 mph - 0.01 in Rain , Thunderstorm Light Rain
1:12 AM 68.0 °F 66.2 °F 94% 29.69 in 3.0 mi South 5.8 mph - 0.06 in Rain Light Rain
1:52 AM 66.9 °F 64.0 °F 90% 29.68 in 3.0 mi SSE 4.6 mph - 0.14 in Rain Rain
2:52 AM 66.0 °F 64.0 °F 93% 29.66 in 10.0 mi Calm Calm - 0.01 in Rain Light Rain
3:45 AM 66.2 °F 64.4 °F 94% 29.67 in 7.0 mi SSE 4.6 mph - 0.02 in Rain Light Rain
3:52 AM 66.0 °F 64.0 °F 93% 29.65 in 5.0 mi SSE 3.5 mph - 0.03 in Rain Light Rain
3:59 AM 66.2 °F 64.4 °F 94% 29.67 in 1.8 mi SSE 5.8 mph - 0.11 in Rain Heavy Rain
4:09 AM 64.4 °F 64.4 °F 100% 29.67 in 2.0 mi South 5.8 mph - 0.21 in Rain Heavy Rain
4:16 AM 64.4 °F 64.4 °F 100% 29.67 in 1.2 mi SSE 6.9 mph - 0.35 in Rain Heavy Rain
4:30 AM 64.4 °F 62.6 °F 94% 29.67 in 2.0 mi Variable 4.6 mph - 0.51 in Rain Rain
4:35 AM 66.2 °F 62.6 °F 88% 29.67 in 3.0 mi West 3.5 mph - 0.51 in Rain Light Rain
4:52 AM 66.9 °F 64.0 °F 90% 29.65 in 8.0 mi NNW 3.5 mph - 0.51 in   Overcast
5:22 AM 66.2 °F 64.4 °F 94% 29.66 in 6.0 mi NE 3.5 mph - 0.00 in Rain Light Rain
5:32 AM 66.2 °F 64.4 °F 94% 29.66 in 2.5 mi Calm Calm - 0.08 in Rain Rain
5:52 AM 66.0 °F 64.9 °F 96% 29.64 in 1.8 mi Calm Calm - 0.17 in Rain Heavy Rain
6:52 AM 66.9 °F 64.9 °F 93% 29.64 in 2.5 mi SSE 3.5 mph - 0.02 in Rain Light Rain
7:52 AM 68.0 °F 64.9 °F 90% 29.64 in 3.0 mi South 3.5 mph - 0.01 in   Overcast
8:52 AM 69.1 °F 64.9 °F 87% 29.63 in 7.0 mi WSW 6.9 mph - 0.00 in   Overcast
9:35 AM 69.8 °F 64.4 °F 83% 29.65 in 6.0 mi WSW 3.5 mph - 0.01 in Rain Light Rain
9:52 AM 69.1 °F 64.0 °F 84% 29.64 in 10.0 mi SSW 8.1 mph - 0.01 in   Mostly Cloudy
10:05 AM 69.8 °F 62.6 °F 78% 29.65 in 10.0 mi SW 9.2 mph - N/A   Scattered Clouds
10:41 AM 71.6 °F 64.4 °F 78% 29.65 in 10.0 mi SSW 10.4 mph - N/A   Mostly Cloudy
10:52 AM 72.0 °F 63.0 °F 73% 29.64 in 10.0 mi WSW 6.9 mph - N/A   Mostly Cloudy
11:10 AM 71.6 °F 62.6 °F 73% 29.66 in 10.0 mi SSW 8.1 mph - N/A   Overcast
11:52 AM 71.1 °F 61.0 °F 70% 29.64 in 10.0 mi WSW 5.8 mph - N/A Thunderstorm Overcast
12:13 PM 66.2 °F 62.6 °F 88% 29.65 in 1.8 mi West 5.8 mph - 0.05 in Rain , Thunderstorm Rain
12:34 PM 66.2 °F 62.6 °F 88% 29.68 in 1.0 mi SSW 6.9 mph - 0.24 in Rain , Thunderstorm Light Thunderstorms and Rain
12:38 PM 66.2 °F 62.6 °F 88% 29.69 in 2.5 mi SSW 10.4 mph - 0.26 in Rain , Thunderstorm Light Thunderstorms and Rain
12:48 PM 64.4 °F 60.8 °F 88% 29.69 in 1.8 mi WSW 8.1 mph - 0.33 in Rain , Thunderstorm Heavy Rain
12:52 PM 64.9 °F 61.0 °F 87% 29.69 in 1.5 mi WSW 10.4 mph 19.6 mph 0.35 in Rain , Thunderstorm Thunderstorms and Rain
1:03 PM 64.4 °F 60.8 °F 88% 29.70 in 3.0 mi SW 11.5 mph 20.7 mph 0.02 in Rain , Thunderstorm Light Thunderstorms and Rain
1:13 PM 64.4 °F 60.8 °F 88% 29.70 in 3.0 mi WSW 10.4 mph - 0.05 in Rain Rain
1:52 PM 64.9 °F 60.1 °F 84% 29.67 in 10.0 mi WNW 5.8 mph - 0.10 in   Mostly Cloudy
2:52 PM 66.9 °F 61.0 °F 81% 29.68 in 10.0 mi SW 8.1 mph - N/A   Overcast
3:52 PM 70.0 °F 60.1 °F 71% 29.67 in 10.0 mi WSW 10.4 mph 17.3 mph N/A   Overcast
4:03 PM 71.6 °F 59.0 °F 64% 29.68 in 10.0 mi WSW 8.1 mph - N/A   Overcast
4:52 PM 73.0 °F 55.9 °F 55% 29.66 in 10.0 mi West 6.9 mph - N/A   Mostly Cloudy
5:52 PM 71.1 °F 54.0 °F 55% 29.67 in 10.0 mi West 12.7 mph 19.6 mph N/A   Overcast
6:52 PM 71.1 °F 54.0 °F 55% 29.67 in 10.0 mi WSW 11.5 mph 18.4 mph N/A   Mostly Cloudy
7:52 PM 69.1 °F 54.0 °F 58% 29.69 in 10.0 mi West 6.9 mph - N/A   Overcast
8:52 PM 55.0 °F 52.0 °F 89% 29.73 in 10.0 mi NE 6.9 mph - N/A   Overcast
9:11 PM 55.4 °F 51.8 °F 88% 29.75 in 10.0 mi NE 5.8 mph - N/A   Overcast
9:25 PM 55.4 °F 51.8 °F 88% 29.75 in 10.0 mi NE 6.9 mph - N/A   Overcast
9:52 PM 54.0 °F 51.1 °F 90% 29.76 in 10.0 mi NE 5.8 mph - N/A   Overcast
10:21 PM 53.6 °F 51.8 °F 94% 29.77 in 5.0 mi NE 5.8 mph - N/A   Overcast
10:52 PM 53.1 °F 51.1 °F 93% 29.76 in 3.0 mi NE 6.9 mph - N/A   Overcast
11:01 PM 53.6 °F 51.8 °F 94% 29.77 in 2.5 mi NE 3.5 mph - N/A   Overcast
11:08 PM 53.6 °F 51.8 °F 94% 29.77 in 4.0 mi NNE 5.8 mph - N/A   Overcast
11:52 PM 53.1 °F 51.1 °F 93% 29.78 in 5.0 mi NE 6.9 mph - N/A   Overcast